Location: Lafig�re
(44.4503°N, 4.0357°E)
Time: 16:34:58
(UTC+00:00)

Cosmos 1340 Rocket - Pass Details

Date: 24 September 2020
Orbit: 529 x 558 km, 81.2° (Epoch: 25 October)

Event Time Altitude Azimuth Distance (km) Brightness Sun altitude
Exits shadow 19:15:11 24° 50° (NE) 1,165 4.2 -18.1°
Drops below altitude 10° 19:17:10 10° 29° (NNE) 1,821 5.3 -18.5°
Sets 19:19:29 0° 20° (NNE) 2,725 6.4 -18.9°
